| time (UTC) | temp F | wind direction | speed MPH | gust MPH | rain 1hr in | rain 24hr in | rain mn in | humidity % | barometer mb |
| 20260507001003 | 79 | 237 | 1.0 | 6.0 | 0.00 | 0.00 | 0.00 | 49 | 1016.1 |
| 20260507000004 | 79 | 266 | 2.0 | 7.0 | 0.00 | 0.00 | 0.00 | 49 | 1016.0 |
| 20260506235004 | 81 | 229 | 2.0 | 6.0 | 0.00 | 0.00 | 0.00 | 47 | 1016.0 |
| 20260506234003 | 81 | 83 | 2.0 | 3.0 | 0.00 | 0.00 | 0.00 | 47 | 1016.1 |
| 20260506233005 | 81 | 173 | 1.0 | 6.0 | 0.00 | 0.00 | 0.00 | 48 | 1016.1 |
| 20260506232003 | 81 | 94 | 1.0 | 8.0 | 0.00 | 0.00 | 0.00 | 47 | 1016.1 |
| 20260506231004 | 82 | 67 | 2.0 | 6.0 | 0.00 | 0.00 | 0.00 | 47 | 1016.2 |
| 20260506230004 | 82 | 69 | 3.0 | 8.0 | 0.00 | 0.00 | 0.00 | 46 | 1016.2 |
| 20260506225003 | 82 | 119 | 2.0 | 4.0 | 0.00 | 0.00 | 0.00 | 47 | 1016.3 |
| 20260506224004 | 81 | 88 | 4.0 | 4.0 | 0.00 | 0.00 | 0.00 | 47 | 1016.4 |
| 20260506223004 | 81 | 63 | 1.0 | 5.0 | 0.00 | 0.00 | 0.00 | 47 | 1016.5 |
| 20260506222003 | 80 | 236 | 0.0 | 5.0 | 0.00 | 0.00 | 0.00 | 47 | 1016.6 |
| 20260506221004 | 79 | 335 | 2.0 | 5.0 | 0.00 | 0.00 | 0.00 | 47 | 1016.7 |
| 20260506220003 | 80 | 69 | 2.0 | 4.0 | 0.00 | 0.00 | 0.00 | 48 | 1016.9 |
| 20260506214003 | 80 | 192 | 1.0 | 5.0 | 0.00 | 0.00 | 0.00 | 47 | 1017.2 |
| 20260506213004 | 80 | 236 | 2.0 | 3.0 | 0.00 | 0.00 | 0.00 | 48 | 1017.3 |
| 20260506212004 | 80 | 259 | 1.0 | 4.0 | 0.00 | 0.00 | 0.00 | 48 | 1017.4 |
| 20260506211004 | 79 | 107 | 0.0 | 6.0 | 0.00 | 0.00 | 0.00 | 49 | 1017.6 |
| 20260506210003 | 79 | 77 | 0.0 | 4.0 | 0.00 | 0.00 | 0.00 | 49 | 1017.6 |
| 20260506204004 | 77 | 129 | 0.0 | 3.0 | 0.00 | 0.00 | 0.00 | 52 | 1017.8 |
| 20260506203003 | 77 | 281 | 1.0 | 4.0 | 0.00 | 0.00 | 0.00 | 51 | 1017.9 |
| 20260506202003 | 76 | 248 | 1.0 | 3.0 | 0.00 | 0.00 | 0.00 | 54 | 1018.1 |
| 20260506201004 | 76 | 219 | 1.0 | 5.0 | 0.00 | 0.00 | 0.00 | 53 | 1018.3 |
| 20260506200004 | 75 | 162 | 0.0 | 5.0 | 0.00 | 0.00 | 0.00 | 54 | 1018.2 |
| 20260506195004 | 75 | 122 | 1.0 | 4.0 | 0.00 | 0.00 | 0.00 | 55 | 1018.3 |
| 20260506193004 | 73 | 61 | 1.0 | 4.0 | 0.00 | 0.00 | 0.00 | 57 | 1018.5 |
| 20260506192004 | 72 | 76 | 1.0 | 4.0 | 0.00 | 0.00 | 0.00 | 59 | 1018.6 |
| 20260506191003 | 70 | 360 | 1.0 | 4.0 | 0.00 | 0.00 | 0.00 | 61 | 1018.7 |
| 20260506190004 | 72 | 360 | 1.0 | 5.0 | 0.00 | 0.00 | 0.00 | 60 | 1018.8 |
| 20260506185004 | 71 | 360 | 0.0 | 4.0 | 0.00 | 0.00 | 0.00 | 60 | 1018.8 |
| 20260506184004 | 70 | 360 | 0.0 | 4.0 | 0.00 | 0.00 | 0.00 | 61 | 1018.9 |
| 20260506183005 | 69 | 141 | 2.0 | 5.0 | 0.00 | 0.00 | 0.00 | 63 | 1019.1 |
| 20260506182003 | 68 | 256 | 1.0 | 4.0 | 0.00 | 0.00 | 0.00 | 64 | 1019.1 |
| 20260506180005 | 66 | 146 | 0.0 | 3.0 | 0.00 | 0.00 | 0.00 | 68 | 1019.2 |
| 20260506174004 | 65 | 242 | 2.0 | 3.0 | 0.00 | 0.00 | 0.00 | 69 | 1019.2 |
| 20260506173009 | 64 | 276 | 1.0 | 4.0 | 0.00 | 0.00 | 0.00 | 71 | 1019.2 |
| 20260506171004 | 63 | 79 | 1.0 | 4.0 | 0.00 | 0.00 | 0.00 | 74 | 1019.4 |
| 20260506170004 | 62 | 351 | 1.0 | 4.0 | 0.00 | 0.00 | 0.00 | 74 | 1019.4 |
| 20260506164004 | 61 | 235 | 0.0 | 2.0 | 0.00 | 0.00 | 0.00 | 77 | 1019.4 |
| 20260506163003 | 60 | 236 | 0.0 | 3.0 | 0.00 | 0.00 | 0.00 | 78 | 1019.3 |
| 20260506162004 | 60 | 246 | 0.0 | 4.0 | 0.00 | 0.00 | 0.00 | 77 | 1019.4 |
| 20260506161004 | 60 | 238 | 0.0 | 2.0 | 0.00 | 0.00 | 0.00 | 78 | 1019.4 |
| 20260506160004 | 60 | 238 | 1.0 | 3.0 | 0.00 | 0.00 | 0.00 | 78 | 1019.4 |
| 20260506155004 | 60 | 199 | 1.0 | 3.0 | 0.00 | 0.00 | 0.00 | 79 | 1019.4 |
| 20260506154003 | 60 | 223 | 0.0 | 4.0 | 0.00 | 0.00 | 0.00 | 79 | 1019.3 |
| 20260506153004 | 60 | 36 | 0.0 | 3.0 | 0.00 | 0.00 | 0.00 | 80 | 1019.3 |
| 20260506150005 | 58 | 46 | 1.0 | 3.0 | 0.00 | 0.00 | 0.00 | 82 | 1019.4 |
| 20260506144003 | 58 | 258 | 0.0 | 0.0 | 0.00 | 0.00 | 0.00 | 83 | 1019.4 |
| 20260506143005 | 58 | 258 | 0.0 | 0.0 | 0.00 | 0.00 | 0.00 | 83 | 1019.3 |
| 20260506142004 | 57 | 258 | 0.0 | 0.0 | 0.00 | 0.00 | 0.00 | 83 | 1019.3 |
| 20260506141004 | 57 | 258 | 0.0 | 0.0 | 0.00 | 0.00 | 0.00 | 83 | 1019.2 |
| 20260506140005 | 57 | 258 | 0.0 | 0.0 | 0.00 | 0.00 | 0.00 | 83 | 1019.1 |
| 20260506135004 | 57 | 258 | 0.0 | 0.0 | 0.00 | 0.00 | 0.00 | 83 | 1018.8 |
| 20260506134004 | 57 | 258 | 0.0 | 0.0 | 0.00 | 0.00 | 0.00 | 83 | 1018.7 |
| 20260506132004 | 57 | 258 | 0.0 | 0.0 | 0.00 | 0.00 | 0.00 | 83 | 1018.5 |
| 20260506131003 | 57 | 258 | 0.0 | 0.0 | 0.00 | 0.00 | 0.00 | 83 | 1018.4 |
| 20260506130005 | 57 | 258 | 0.0 | 0.0 | 0.00 | 0.00 | 0.00 | 82 | 1018.3 |
| 20260506125004 | 57 | 258 | 0.0 | 0.0 | 0.00 | 0.00 | 0.00 | 82 | 1018.3 |
| 20260506124003 | 57 | 258 | 0.0 | 0.0 | 0.00 | 0.00 | 0.00 | 82 | 1018.2 |
| 20260506123004 | 57 | 258 | 0.0 | 0.0 | 0.00 | 0.00 | 0.00 | 82 | 1018.3 |
| 20260506121004 | 57 | 255 | 0.0 | 0.0 | 0.00 | 0.00 | 0.00 | 83 | 1018.1 |
| 20260506120004 | 57 | 255 | 0.0 | 0.0 | 0.00 | 0.00 | 0.00 | 82 | 1018.1 |
| 20260506115004 | 57 | 255 | 0.0 | 0.0 | 0.00 | 0.00 | 0.00 | 82 | 1018.0 |
| 20260506114004 | 57 | 255 | 0.0 | 0.0 | 0.00 | 0.00 | 0.00 | 82 | 1017.9 |
| 20260506113003 | 57 | 255 | 0.0 | 0.0 | 0.00 | 0.00 | 0.00 | 82 | 1017.9 |
| 20260506110004 | 57 | 255 | 0.0 | 0.0 | 0.00 | 0.00 | 0.00 | 82 | 1017.8 |
| 20260506105003 | 57 | 255 | 0.0 | 0.0 | 0.00 | 0.00 | 0.00 | 82 | 1017.7 |
| 20260506102003 | 57 | 255 | 0.0 | 0.0 | 0.00 | 0.00 | 0.00 | 82 | 1017.7 |
| 20260506101004 | 57 | 255 | 0.0 | 0.0 | 0.00 | 0.00 | 0.00 | 82 | 1017.8 |
| 20260506100004 | 57 | 255 | 0.0 | 0.0 | 0.00 | 0.00 | 0.00 | 82 | 1017.7 |
| 20260506095004 | 57 | 255 | 0.0 | 0.0 | 0.00 | 0.00 | 0.00 | 82 | 1017.6 |
| 20260506094003 | 57 | 255 | 0.0 | 0.0 | 0.00 | 0.00 | 0.00 | 81 | 1017.6 |
| 20260506093003 | 58 | 255 | 0.0 | 0.0 | 0.00 | 0.00 | 0.00 | 81 | 1017.8 |
| 20260506092004 | 58 | 255 | 0.0 | 0.0 | 0.00 | 0.00 | 0.00 | 81 | 1017.9 |
| 20260506091004 | 58 | 255 | 0.0 | 0.0 | 0.00 | 0.00 | 0.00 | 81 | 1017.8 |
| 20260506085004 | 58 | 250 | 0.0 | 0.0 | 0.00 | 0.00 | 0.00 | 81 | 1017.7 |
| 20260506084003 | 58 | 250 | 0.0 | 0.0 | 0.00 | 0.00 | 0.00 | 81 | 1017.7 |
| 20260506082003 | 58 | 250 | 0.0 | 0.0 | 0.00 | 0.00 | 0.00 | 80 | 1017.8 |
| 20260506081004 | 58 | 250 | 0.0 | 0.0 | 0.00 | 0.00 | 0.00 | 80 | 1017.7 |
| 20260506073004 | 58 | 138 | 0.0 | 0.0 | 0.00 | 0.00 | 0.00 | 79 | 1017.4 |
| 20260506072004 | 58 | 138 | 0.0 | 0.0 | 0.00 | 0.00 | 0.00 | 79 | 1017.4 |
| 20260506071003 | 58 | 138 | 0.0 | 0.0 | 0.00 | 0.00 | 0.00 | 78 | 1017.3 |
| 20260506062004 | 59 | 242 | 0.0 | 0.0 | 0.00 | 0.00 | 0.00 | 77 | 1017.0 |
| 20260506061003 | 59 | 242 | 0.0 | 0.0 | 0.00 | 0.00 | 0.00 | 76 | 1016.9 |
| 20260506051004 | 59 | 243 | 0.0 | 0.0 | 0.00 | 0.00 | 0.00 | 75 | 1016.5 |
| 20260506045004 | 60 | 243 | 0.0 | 0.0 | 0.00 | 0.00 | 0.00 | 74 | 1016.3 |
| 20260506044004 | 60 | 243 | 0.0 | 2.0 | 0.00 | 0.00 | 0.00 | 74 | 1016.3 |
| 20260506043004 | 60 | 243 | 0.0 | 1.0 | 0.00 | 0.00 | 0.00 | 74 | 1016.1 |
| 20260506041004 | 60 | 243 | 0.0 | 1.0 | 0.00 | 0.00 | 0.00 | 74 | 1015.9 |
| 20260506040005 | 60 | 243 | 0.0 | 1.0 | 0.00 | 0.00 | 0.00 | 74 | 1015.8 |
| 20260506035004 | 60 | 243 | 0.0 | 2.0 | 0.00 | 0.00 | 0.00 | 74 | 1015.7 |
| 20260506033004 | 60 | 243 | 0.0 | 0.0 | 0.00 | 0.00 | 0.00 | 73 | 1015.4 |
| 20260506032004 | 60 | 243 | 0.0 | 0.0 | 0.00 | 0.00 | 0.00 | 73 | 1015.3 |
| 20260506031003 | 60 | 243 | 0.0 | 1.0 | 0.00 | 0.00 | 0.00 | 73 | 1015.2 |
| 20260506030004 | 61 | 243 | 0.0 | 0.0 | 0.00 | 0.00 | 0.00 | 72 | 1015.1 |
| 20260506025004 | 61 | 243 | 0.0 | 2.0 | 0.00 | 0.00 | 0.00 | 72 | 1014.9 |
| 20260506024004 | 61 | 243 | 1.0 | 2.0 | 0.00 | 0.00 | 0.00 | 72 | 1014.7 |
| 20260506023003 | 61 | 244 | 0.0 | 2.0 | 0.00 | 0.00 | 0.00 | 72 | 1014.6 |
| 20260506022004 | 61 | 243 | 0.0 | 2.0 | 0.00 | 0.00 | 0.00 | 72 | 1014.6 |
| 20260506021003 | 62 | 259 | 0.0 | 0.0 | 0.00 | 0.00 | 0.00 | 72 | 1014.5 |
| 20260506020005 | 62 | 259 | 0.0 | 0.0 | 0.00 | 0.00 | 0.00 | 72 | 1014.6 |
| 20260506015004 | 62 | 257 | 0.0 | 0.0 | 0.00 | 0.00 | 0.00 | 71 | 1014.7 |
| 20260506013004 | 62 | 257 | 0.0 | 0.0 | 0.00 | 0.00 | 0.00 | 71 | 1014.6 |
| 20260506012004 | 62 | 257 | 0.0 | 0.0 | 0.00 | 0.00 | 0.00 | 71 | 1014.7 |
| 20260506011003 | 62 | 257 | 0.0 | 1.0 | 0.00 | 0.00 | 0.00 | 71 | 1014.6 |
| 20260506010005 | 62 | 257 | 0.0 | 2.0 | 0.00 | 0.00 | 0.00 | 70 | 1014.6 |
| 20260506005004 | 62 | 257 | 0.0 | 1.0 | 0.00 | 0.00 | 0.00 | 70 | 1014.6 |
| 20260506004004 | 62 | 257 | 0.0 | 1.0 | 0.00 | 0.00 | 0.00 | 70 | 1014.7 |
| 20260506003004 | 62 | 256 | 0.0 | 2.0 | 0.00 | 0.00 | 0.00 | 69 | 1014.6 |
| 20260506002004 | 63 | 288 | 1.0 | 3.0 | 0.00 | 0.00 | 0.00 | 69 | 1014.5 |